Wind_Speed
19 14 8 5 4 4 2 3 1 2 2 1 2 4 4 2 3 2 3 8 16 19 15 12 13 14 15 16 15 16 18 17 17 18 18 16 16 17 16 16 17 17 16 16 16 18 16 16 16
18 12 4 2 3 2 3 2 4 3 4 6 4 2 2 1 0 5 11 8 19 19 16 13 13 14 15 16 15 15 16 16 16 16 17 16 16 15 15 15 16 16 16 15 17 16 15 15 16
10 8 3 4 2 3 3 3 2 2 6 2 3 3 1 3 3 12 4 17 19 18 16 13 13 14 15 15 15 15 15 15 15 15 16 15 14 14 14 15 16 16 15 15 15 15 15 15 15
7 5 3 3 2 4 3 1 3 5 2 2 2 4 1 3 4 9 12 21 19 17 16 13 13 14 15 14 13 15 15 14 14 14 15 14 14 13 14 14 15 15 15 14 14 14 14 14 15
5 3 2 2 2 3 3 2 7 5 3 2 1 2 2 2 3 9 18 21 20 16 16 14 13 13 14 12 11 15 15 13 14 13 13 13 13 13 13 14 15 15 14 14 13 13 12 12 13
3 3 3 3 4 3 3 3 4 3 3 3 3 5 3 3 8 13 20 20 18 16 17 16 13 12 13 13 11 15 15 15 13 12 12 14 13 12 12 12 13 14 13 13 13 12 12 11 10
4 3 3 2 4 4 2 6 5 5 5 3 5 5 1 5 10 18 20 19 17 15 16 17 16 15 13 12 13 14 16 16 12 10 10 9 11 12 11 11 11 12 12 12 11 11 10 9 8
3 3 3 3 3 5 1 3 0 5 4 3 3 3 3 6 15 21 19 18 17 16 16 16 16 14 14 12 16 16 16 14 10 8 6 7 10 10 11 11 11 11 11 11 10 8 8 8 7
0 3 2 3 5 4 1 2 1 1 5 2 4 2 1 15 21 21 18 17 18 17 17 17 17 16 15 16 14 16 15 14 11 8 6 6 10 10 10 10 10 11 10 10 9 6 5 5 5
3 3 5 2 2 2 3 2 5 2 2 3 2 2 4 24 24 21 19 18 17 19 20 19 18 17 18 17 16 16 15 14 13 11 7 6 9 10 10 10 11 11 11 10 7 4 3 3 4
3 3 1 2 1 2 4 1 2 5 3 6 7 6 12 17 20 19 19 19 21 19 20 22 21 20 20 19 18 18 18 17 15 13 10 8 11 11 10 10 10 10 10 7 5 4 3 3 3
3 4 4 3 2 5 4 6 3 5 5 1 6 5 14 17 20 21 20 19 18 22 22 22 23 22 21 20 20 18 18 18 17 15 13 12 13 12 11 10 10 10 9 8 5 4 3 3 3
3 3 2 2 6 5 5 5 5 6 6 2 3 7 12 17 21 21 20 19 17 23 23 23 24 24 22 22 20 20 19 19 17 16 14 14 14 13 13 12 12 11 10 7 5 4 5 5 4
2 2 4 3 2 4 3 4 1 3 3 1 3 7 7 14 20 17 21 22 23 24 26 25 24 25 24 24 22 21 20 21 19 18 16 16 15 13 13 12 11 11 10 7 6 6 6 6 7
1 3 5 3 2 4 4 6 8 6 1 5 6 6 7 10 16 23 27 26 24 25 27 28 26 25 26 26 24 23 22 21 22 21 19 19 16 15 13 12 13 11 11 10 9 9 9 9 10
1 3 0 2 3 4 6 10 3 7 4 8 7 6 7 9 18 21 27 30 30 28 25 28 29 28 28 28 26 25 24 24 24 23 22 22 20 17 18 16 15 13 13 13 12 12 11 11 11
3 4 4 6 5 1 6 6 4 1 6 8 6 7 7 8 11 23 29 31 32 31 29 29 31 32 31 30 28 27 26 26 25 25 26 24 24 21 20 19 17 15 15 15 14 14 14 12 12
6 4 3 3 2 1 3 11 8 6 2 6 8 7 8 10 13 24 25 27 31 30 30 30 31 33 34 32 32 31 30 29 28 26 27 28 28 26 24 22 19 18 19 19 18 18 16 14 13
6 3 3 2 3 2 4 8 14 10 6 7 9 10 10 13 19 23 23 23 28 31 33 34 34 35 35 35 32 32 33 33 31 30 29 30 31 30 27 25 24 23 23 23 21 20 19 17 14
5 3 2 4 2 1 6 11 15 8 11 11 14 13 14 12 9 18 22 26 27 33 38 37 40 39 39 38 38 28 32 35 36 32 32 31 33 32 30 30 29 27 26 25 25 24 22 20 18
4 9 3 5 6 3 6 8 11 7 6 8 11 14 13 14 13 13 18 26 30 33 35 39 42 40 40 40 35 33 26 25 27 33 36 38 35 34 34 32 32 31 30 30 29 28 28 22 23
8 5 4 3 1 6 2 7 9 5 9 7 11 10 13 15 12 13 18 20 28 34 34 39 41 43 43 40 36 37 33 30 34 36 39 39 38 37 36 35 34 33 32 34 33 32 32 29 21
3 6 7 4 2 3 5 4 8 2 6 8 9 11 12 14 12 13 18 27 34 35 34 37 40 40 41 41 41 37 35 35 31 32 37 39 39 38 38 38 37 36 36 37 37 36 35 35 28
7 5 3 2 2 5 7 9 5 5 5 4 8 11 10 10 12 12 22 25 29 32 32 33 35 39 40 42 45 40 40 37 29 33 35 35 39 39 39 40 39 40 41 41 40 39 38 37 37
4 6 1 3 4 7 2 5 13 9 6 7 9 11 12 7 8 9 10 15 22 28 32 32 34 36 39 41 41 43 42 37 37 35 36 31 35 40 43 41 41 43 43 42 41 41 40 41 40
8 7 4 5 4 4 2 8 6 14 14 9 9 14 11 10 6 7 12 20 24 26 29 31 31 35 36 39 41 43 44 39 38 35 34 38 36 39 38 39 40 42 42 42 42 41 42 38 39
4 8 6 2 2 1 4 9 10 8 11 8 14 9 11 7 8 10 12 19 25 27 27 29 31 32 33 37 38 36 36 37 34 35 34 35 39 35 36 36 35 36 36 39 39 40 40 38 35
2 4 3 4 4 5 5 6 12 7 14 13 7 9 6 6 10 12 10 18 23 26 26 23 26 31 32 32 33 34 34 33 34 30 31 34 35 34 34 33 33 32 33 33 34 34 34 32 35
2 3 2 2 3 4 2 7 7 12 12 9 7 5 6 9 10 10 11 20 17 14 15 18 21 25 27 27 29 31 32 34 34 32 31 36 35 34 32 31 32 32 32 32 32 33 33 31 33
6 9 6 3 3 3 2 10 6 9 3 4 7 8 6 7 9 7 10 13 17 14 13 12 12 16 21 23 24 27 27 30 32 34 36 36 35 34 32 31 30 31 32 31 33 32 32 32 32
Wind_Direction
342 341 350 22 45 58 278 270 283 164 169 357 84 136 181 88 163 197 171 178 157 156 148 149 148 141 137 132 130 129 124 119 116 110 108 108 111 109 109 111 114 113 108 99 95 106 97 92 93
344 347 34 74 86 32 281 257 220 193 132 122 80 81 85 143 214 121 138 160 157 154 150 155 157 153 142 136 133 129 131 125 120 118 113 114 114 113 111 112 115 115 106 100 100 103 100 97 96
345 351 72 87 103 188 235 231 213 107 139 126 109 46 134 167 174 157 156 161 159 155 155 156 164 157 149 142 139 137 139 131 127 122 119 120 118 115 111 109 115 114 107 102 103 106 101 98 94
355 20 38 95 208 253 227 292 164 127 258 70 129 100 297 241 166 178 156 161 160 157 159 161 175 166 158 152 146 150 148 138 133 130 129 125 122 118 115 111 116 118 112 108 107 109 101 96 91
31 57 67 107 237 261 256 264 160 159 139 124 150 166 177 189 183 168 160 164 165 163 162 165 182 175 168 167 163 161 161 152 143 139 136 131 128 126 122 121 121 121 117 111 107 110 109 99 90
47 98 49 255 247 230 264 188 159 145 131 155 123 142 205 233 173 167 165 166 167 166 164 169 178 187 183 175 169 169 171 164 155 146 139 136 137 134 130 126 124 124 120 115 111 106 103 100 88
95 86 217 230 269 312 224 158 167 170 152 216 144 140 213 196 181 169 170 168 168 170 168 173 181 188 193 190 176 170 173 168 157 149 143 143 147 140 135 132 124 122 122 119 115 110 100 93 88
100 92 153 238 242 267 252 212 231 159 193 120 178 186 213 193 177 168 171 172 173 174 174 178 182 189 189 182 167 169 169 168 161 156 154 154 152 148 145 134 128 126 129 129 121 108 98 92 90
156 70 205 238 184 249 14 211 330 20 120 241 181 166 188 166 165 166 170 174 178 181 178 181 181 182 182 178 172 172 174 173 167 165 164 170 166 158 151 143 141 139 135 133 131 122 100 91 94
96 133 216 251 248 279 306 221 187 159 127 235 234 166 150 161 168 173 180 180 185 186 184 187 187 184 185 186 186 183 182 183 182 180 177 181 178 168 163 159 156 152 150 148 144 138 128 121 108
130 199 259 290 300 17 308 245 212 145 237 221 207 170 159 169 181 188 192 194 187 192 192 194 193 191 189 193 193 193 193 191 190 192 190 190 187 182 175 172 169 166 165 166 168 165 147 135 126
136 232 203 293 37 355 321 316 247 200 223 311 229 159 166 180 190 194 198 198 191 195 200 200 200 198 197 197 200 199 197 199 202 201 204 202 195 192 189 187 183 183 185 188 191 176 170 171 157
161 245 198 294 290 280 295 267 265 247 252 14 109 175 186 189 195 202 204 202 200 204 209 208 204 205 205 203 205 209 209 211 210 213 214 208 202 201 197 197 197 196 195 201 205 202 192 190 188
188 271 275 272 257 268 266 273 310 304 154 158 171 218 210 202 198 194 203 204 205 216 218 213 212 210 210 210 210 216 217 213 215 218 219 209 208 208 208 209 211 210 211 220 222 215 210 208 211
172 313 329 245 226 239 175 278 223 244 182 232 232 225 232 224 210 207 208 206 208 216 221 219 217 213 212 216 217 219 222 222 220 219 219 216 216 217 216 216 217 216 221 227 224 222 222 220 219
111 63 185 281 184 254 147 261 244 245 207 251 253 245 240 233 230 227 221 222 223 227 223 222 224 221 215 220 222 223 224 224 227 227 225 223 222 224 224 226 225 221 225 229 228 230 233 234 235
14 227 205 313 209 251 183 270 264 9 207 249 255 261 249 260 246 242 236 229 228 227 228 226 226 226 224 223 226 227 229 228 229 230 232 230 229 230 231 231 233 232 234 234 235 235 234 237 239
178 216 248 228 337 315 268 262 258 281 197 262 273 265 261 259 248 247 243 240 236 233 229 230 228 227 227 228 229 229 230 232 234 234 234 235 233 234 236 237 236 235 236 234 234 236 237 239 238
130 155 194 244 290 293 251 266 277 273 264 254 251 257 254 246 257 262 256 244 239 236 235 229 227 230 226 224 225 230 228 230 234 236 238 238 237 237 237 239 239 237 238 238 237 237 234 235 228
131 137 233 277 349 229 290 276 278 250 256 235 244 245 249 245 246 255 251 246 235 234 232 233 231 228 227 224 227 222 229 236 238 238 241 241 239 238 239 240 240 239 239 240 237 235 235 237 226
171 223 197 252 327 292 315 274 261 258 253 252 247 244 251 244 241 247 242 236 238 231 231 230 235 231 229 227 224 226 230 232 233 235 235 236 239 238 239 240 242 243 242 243 241 238 234 231 231
224 167 243 280 320 270 13 295 267 229 252 246 257 233 242 249 238 245 245 239 235 240 239 236 236 234 234 227 220 220 218 223 231 234 238 239 238 239 241 241 241 243 244 244 245 245 242 236 231
205 152 184 186 204 329 223 261 271 292 252 262 263 256 240 241 238 238 240 244 249 250 242 240 236 231 230 227 223 221 221 230 233 236 239 242 240 239 241 242 241 242 243 245 245 246 242 242 234
142 98 89 82 123 251 203 193 250 238 215 238 257 264 260 244 243 242 249 252 252 257 248 241 233 233 230 225 227 220 224 225 223 228 232 235 240 240 241 241 241 243 243 245 246 247 249 247 247
151 134 220 217 199 243 323 203 248 278 252 234 243 260 263 261 257 259 268 257 251 252 248 241 232 229 229 224 222 223 226 226 224 226 228 225 230 237 241 240 240 242 244 247 247 248 249 249 245
176 178 175 209 204 273 315 242 255 230 258 258 256 256 275 274 287 253 254 259 258 257 253 242 230 230 227 225 224 225 226 227 227 227 228 230 232 240 243 245 244 246 248 249 249 247 249 245 247
186 203 199 9 62 306 222 285 279 254 274 273 258 263 271 305 290 275 271 264 264 256 252 246 238 237 232 230 228 225 227 226 228 230 229 233 239 238 246 248 248 248 250 251 250 247 247 245 245
143 139 133 189 215 226 255 264 235 303 285 276 272 265 304 306 290 289 293 289 285 271 264 251 244 244 241 234 230 226 225 228 230 232 229 232 238 240 243 248 251 252 252 253 251 247 249 244 248
118 177 185 250 204 212 293 258 212 216 242 278 292 329 317 307 315 316 316 322 302 294 277 260 252 246 241 238 233 229 228 227 230 231 236 240 240 243 246 249 251 253 255 256 253 252 251 243 246
160 180 181 209 192 220 285 265 211 229 254 356 330 300 299 288 281 304 312 333 321 306 299 283 270 253 248 242 236 234 235 236 234 234 236 243 247 248 250 252 252 254 254 256 255 253 251 247 246
Height
824 822 820 820 846 852 861 855 847 848 848 844 845 847 849 850 851 862 853 854 854 857 859 862 864 865 865 867 868 869 870 871 872 872 873 875 875 876 876 877 878 878 879 880 880 881 882 883 883
825 822 821 832 857 866 860 849 849 844 845 845 845 847 849 852 852 852 854 854 856 858 860 863 864 865 866 868 869 870 871 872 874 874 874 876 877 878 878 879 879 880 881 882 883 884 885 885 885
827 825 830 849 864 864 860 846 843 844 845 844 849 849 851 852 851 852 851 854 857 858 861 863 865 866 867 869 870 871 872 873 875 876 877 878 879 879 880 880 881 883 883 884 886 887 887 887 887
827 828 837 849 859 852 848 842 842 846 844 843 846 851 851 850 850 851 851 854 857 859 862 864 867 868 868 870 871 872 873 875 876 877 878 879 880 881 882 883 883 885 886 887 888 889 890 890 890
829 836 851 858 855 848 844 841 843 846 844 845 845 849 852 850 850 850 852 854 856 860 861 865 867 869 870 871 871 873 873 875 876 878 879 880 881 882 883 883 884 886 887 889 889 890 891 892 892
838 842 859 862 855 844 842 840 840 842 844 847 846 850 851 850 849 850 853 856 857 859 861 864 868 870 871 870 872 873 874 875 876 878 880 881 882 883 884 885 886 887 888 890 891 891 892 893 893
844 851 860 861 855 850 840 839 842 842 844 844 842 850 849 850 849 850 854 856 857 859 861 864 867 869 871 871 871 873 875 876 878 879 881 881 882 884 885 886 888 889 890 891 892 893 894 894 894
847 853 861 860 859 854 839 840 836 837 841 841 840 846 846 845 847 850 854 856 857 859 860 863 866 868 870 872 872 873 876 877 879 880 882 883 884 885 886 887 889 890 891 892 893 894 894 894 895
846 860 865 855 856 847 840 842 838 837 840 841 840 840 841 842 846 850 854 855 857 858 859 862 865 867 870 872 873 875 876 876 879 881 882 883 884 885 887 887 888 889 891 893 893 894 894 895 896
850 860 855 847 845 843 840 840 840 840 842 841 840 839 840 842 845 848 850 852 855 857 857 861 864 866 869 871 873 874 876 877 878 879 881 883 884 885 886 887 888 889 891 892 894 894 895 896 896
850 854 849 844 843 843 843 840 838 841 843 836 836 835 839 843 845 847 848 850 851 855 857 859 862 865 867 870 871 873 874 875 877 878 880 881 883 885 886 888 889 890 891 892 893 894 895 896 897
850 846 847 845 844 845 844 844 840 838 830 829 830 832 836 838 841 843 846 848 850 852 855 858 861 863 865 867 869 871 873 874 876 878 879 880 881 883 885 887 888 889 890 891 893 894 895 896 896
849 847 844 844 846 844 844 843 839 835 829 829 830 833 834 835 837 841 845 847 849 850 853 855 858 861 864 865 867 869 870 873 874 876 878 879 880 882 883 885 886 887 889 891 892 894 894 895 895
848 848 847 844 844 844 843 841 840 830 828 829 830 832 833 833 834 837 841 844 845 847 850 853 855 858 861 862 864 867 869 870 872 874 875 877 878 880 882 884 886 887 889 890 891 892 893 893 894
848 850 847 844 841 842 840 845 841 830 829 829 830 830 832 832 834 831 834 837 841 841 846 849 852 854 857 859 861 863 865 868 869 870 872 875 877 879 880 881 883 885 887 888 889 890 890 891 891
851 852 857 843 843 837 840 843 831 827 830 829 829 829 831 828 829 832 832 834 836 839 840 845 849 851 852 855 857 859 861 863 866 868 870 872 873 875 877 879 880 882 883 885 886 888 888 889 890
859 861 862 851 842 839 842 842 828 826 830 829 829 828 827 827 827 827 828 828 830 833 836 839 843 846 848 850 853 855 857 859 860 863 867 868 870 872 874 875 877 879 880 882 883 884 885 886 887
858 860 862 856 846 845 845 841 831 829 828 829 827 827 827 824 820 819 823 826 828 830 832 834 837 840 842 845 848 850 852 854 857 859 861 864 866 868 870 872 874 875 876 877 879 881 882 883 883
850 854 855 854 847 846 847 846 831 829 830 829 826 822 822 819 815 815 815 818 822 826 828 827 829 831 835 838 841 844 844 847 850 853 856 858 860 862 865 867 869 870 872 873 876 877 878 879 880
846 852 855 851 849 846 845 840 824 826 820 819 818 816 813 812 811 809 809 811 812 813 816 822 821 823 825 829 831 835 838 839 841 845 848 851 853 856 858 860 863 865 867 869 871 873 874 876 877
847 844 851 850 850 848 849 835 822 815 815 811 809 805 803 802 803 802 802 802 803 804 807 810 814 818 819 822 826 829 833 834 835 836 838 841 846 849 851 853 856 859 862 863 865 867 868 869 871
844 844 848 850 853 855 848 843 820 813 811 808 803 803 800 796 795 793 793 793 794 794 796 799 803 807 810 815 818 819 821 823 823 825 828 832 837 840 843 846 849 851 854 856 857 860 862 865 865
839 843 847 851 854 858 850 854 814 815 812 807 798 793 791 787 787 786 784 784 783 785 787 789 792 796 802 805 808 811 813 813 818 820 821 824 827 831 835 838 841 843 845 846 849 851 854 855 858
840 847 851 856 855 850 838 848 826 810 802 797 790 785 783 781 778 778 776 777 777 778 780 781 784 786 790 794 797 802 802 804 809 811 813 815 818 822 825 828 831 833 835 836 839 842 845 847 848
836 842 853 852 853 842 837 843 807 798 797 791 787 782 776 776 776 776 775 774 771 771 771 772 774 776 779 783 787 791 794 798 799 801 804 807 809 810 813 817 821 823 825 828 831 833 835 836 837
834 836 850 855 857 848 843 825 800 789 779 780 780 777 774 774 774 775 770 766 764 763 764 764 766 766 770 773 776 779 784 788 790 793 795 796 798 800 804 807 812 815 817 819 822 824 824 827 828
835 837 836 846 901 859 834 817 792 790 786 784 777 774 772 774 771 767 762 761 757 755 755 757 758 759 762 763 767 773 777 781 783 785 787 789 791 792 794 798 803 806 809 811 813 814 815 818 820
827 831 840 844 843 849 828 825 794 787 775 766 775 774 774 774 769 763 760 756 753 751 750 752 752 753 754 757 760 763 768 773 776 780 782 783 784 785 789 793 796 799 801 804 806 807 809 811 811
832 832 837 838 836 834 847 801 786 776 771 775 774 773 774 771 766 763 759 755 751 748 747 747 748 749 749 750 753 757 760 763 767 773 776 777 779 780 783 786 789 792 794 796 798 799 801 802 803
820 825 830 825 832 829 827 787 768 770 771 775 774 774 773 770 768 762 759 753 752 748 746 745 743 745 747 747 748 750 753 757 761 762 766 770 774 776 777 779 782 785 787 789 791 791 792 794 795